Location: Domicella
(40.8833°N, 14.5833°E)
Time: 04:50:24
(UTC+00:00)

CZ-2C R/B - Pass Details

Date: 15 May 2026
Orbit: 781 x 867 km, 98.4° (Epoch: 6 June)

Event Time Altitude Azimuth Distance (km) Brightness Sun altitude
Exits shadow 22:39:09 37° 65° (ENE) 1,220 3.6 -29.9°
Drops below altitude 10° 22:43:46 10° 3° (N) 2,364 5.9 -30.0°
Sets 22:46:13 0° 356° (N) 3,290 7.0 -30.0°
